Location: ????????
(60.4333°N, 46.4710°E)
Time: 03:29:40
(UTC+00:00)

Cosmos 1933 Rocket - Pass Details

Date: 25 November 2020
Orbit: 606 x 631 km, 82.5° (Epoch: 19 January)

Event Time Altitude Azimuth Distance (km) Brightness Sun altitude
Rises 14:13:04 0° 347° (NNW) 2,936 7.0 -14.7°
Reaches altitude 10° 14:15:30 10° 357° (N) 2,027 6.1 -15.0°
Maximum altitude 14:19:35 33° 62° (ENE) 1,073 4.2 -15.5°
Enters shadow 14:21:42 22° 109° (ESE) 1,392 4.9 -15.7°
